Weather in Tishchenskoye

Russia / Stavropol Krai     45°27′50″N   41°40′41″E
temp.,
°C
wind,
m/s
gust,
m/s
humid.,
%
clouds,
%
prec.,
mm/h
press.,
hPa
HPBL,
m
16 october, sat
sat1600:00+15ene4936100 0.0 1019249
03:00+14e5103760 0.0 1018347
06:00+11e39517 0.1 1017187
09:00+16e58385 0.1 1017423
12:00+21e6732100 0.0 1015878
15:00+22ese5636100 0.0 10141051
18:00+18ese354984 0.0 101473
21:00+16ese3657100 0.1 1014120
17 october, sun
sun1700:00+15sse1169100 0.6 101313
03:00+14wsw2281100 1.1 101323
06:00+13sw22855 0.0 101422
09:00+16wsw2269100 0.0 1013282
12:00+20w3353100 0.0 1012758
15:00+21nw3344100 0.0 10121001
18:00+18nw2249100 0.0 101320
21:00+16wsw1154100 0.0 101311
18 october, mon
mon1800:00+15w3462100 0.0 101352
03:00+13w3366100 0.0 101433
06:00+12wsw3565100 0.0 101584
09:00+14w5757100 0.0 1016393
12:00+13w3464100 0.2 1016373
15:00+16wnw346155 0.2 1016805
18:00+13sw22645 0.0 101613
21:00+12sw34705 0.0 101741
19 october, tue
tue1900:00+11sw36875 0.0 101788
03:00+10wsw357098 0.0 101773
06:00+10wsw376895 0.0 1018169
09:00+12w576368 0.0 1018517
12:00+14w574782 0.0 10181124
15:00+15wnw6835100 0.0 10161804
18:00+12wnw3644100 0.0 1017197
21:00+10nw6871100 0.2 1018742
20 october, wed
wed2000:00+10w5982100 2.0 1018898
03:00+8wnw5881100 2.6 10201036
06:00+8nw6978100 0.6 1022836
09:00+9wnw57625 0.7 1025928
12:00+11wnw68355 0.0 10251928
15:00+10wnw78365 0.0 10261997
18:00+7nw37475 0.0 1028171
21:00+6wnw335478 0.0 102952